This is the latest recevied weather packets stored in our database for station/object N6WDO. If no packets are shown the sender has not sent any weather packets the latest 10 day(s).
| Time | Temp. | Humidity | Pressure | Rain* | Wind** | Luminosity | Snow |
|---|---|---|---|---|---|---|---|
| 1777998808 | 11.67° C | 95% | 1015.4 hPa | 0 mm | - | 283 W/m² | - |
| 1777998506 | 11.11° C | 97% | 1015.6 hPa | 0 mm | - | 268 W/m² | - |
| 1777998202 | 11.11° C | 97% | 1015.7 hPa | 0 mm | - | 271 W/m² | - |
| 1777997900 | 11.11° C | 97% | 1015.6 hPa | 0 mm | - | 249 W/m² | - |
| 1777997597 | 10.56° C | 98% | 1015.7 hPa | 0 mm | - | 181 W/m² | - |
| 1777997294 | 10.56° C | 98% | 1015.5 hPa | 0 mm | - | 143 W/m² | - |
| 1777996992 | 10.56° C | 98% | 1015.7 hPa | 0 mm | - | 110 W/m² | - |
| 1777996688 | 10.56° C | 98% | 1015.5 hPa | 0 mm | - | 115 W/m² | - |
| 1777996384 | 10.56° C | 98% | 1015.3 hPa | 0 mm | - | 119 W/m² | - |
| 1777996080 | 10.56° C | 98% | 1015.5 hPa | 0 mm | - | 103 W/m² | - |
| 1777995777 | 10.56° C | 98% | 1015.5 hPa | 0 mm | - | 104 W/m² | - |
| 1777995473 | 10.56° C | 98% | 1015.5 hPa | 0 mm | - | 96 W/m² | - |
| 1777995170 | 10.56° C | 99% | 1015.5 hPa | 0 mm | - | 87 W/m² | - |
| 1777994867 | 10.56° C | 99% | 1015.5 hPa | 0 mm | - | 82 W/m² | - |
| 1777994564 | 10.56° C | 99% | 1015.2 hPa | 0 mm | - | 66 W/m² | - |
| 1777994258 | 10.56° C | 99% | 1015.3 hPa | 1.78 mm | - | 57 W/m² | - |
| 1777993956 | 10° C | 99% | 1015.5 hPa | 1.78 mm | - | 56 W/m² | - |
| 1777993653 | 10° C | 99% | 1015.3 hPa | 0 mm | - | 58 W/m² | - |
| 1777993350 | 10° C | 99% | 1015.2 hPa | 0 mm | - | 58 W/m² | - |
| 1777993044 | 10° C | 99% | 1015.3 hPa | 0 mm | - | 57 W/m² | - |
| 1777992743 | 10° C | 99% | 1015.3 hPa | 0 mm | - | 54 W/m² | - |
| 1777992440 | 10° C | 99% | 1015.2 hPa | 0 mm | - | 54 W/m² | - |
| 1777992138 | 10° C | 99% | 1015.1 hPa | 0 mm | - | 59 W/m² | - |
| 1777991835 | 10° C | 99% | 1015.2 hPa | 0 mm | - | 54 W/m² | - |
| 1777991532 | 10° C | 99% | 1014.9 hPa | 0 mm | - | 64 W/m² | - |
* Rain latest hour (hover to see other rain measurements)
** Current wind speed in m/s (hover to see current wind gust speed)